Location: Clarion
(42.7316°N, 93.7330°W)
Time: 09:18:54
(UTC+00:00)

Cosmos 1833 Rocket - Pass Details

Date: 22 April 2026
Orbit: 831 x 838 km, 71.0° (Epoch: 17 May)

Event Time Altitude Azimuth Distance (km) Brightness Sun altitude
Exits shadow 06:04:55 39° 6° (N) 1,224 3.8 -35.0°
Drops below altitude 10° 06:08:29 10° 20° (NNE) 2,448 5.8 -35.0°
Sets 06:10:57 0° 23° (NNE) 3,387 6.7 -35.0°
